Hourly Data Report for October 17, 2014

All times are specified in Local Standard Time (LST). Add 1 hour to adjust for Daylight Saving Time where and when it is observed.

KUGAARUK CLIMATE
NUNAVUT

68°32'15.060" N
89°47'47.020" W
15.80 m
2303094
71407
NBB

Download Data

Hourly Data (October 2014)
Hourly Data Report for October 17, 2014
Temp Definition
°C
Dew Point Temp Definition
°C
Rel Hum Definition
%
Wind Dir Definition
10's deg

Wind Spd Definition
km/h
Visibility Definition
km
Stn Press Definition
kPa
Hmdx Definition


Wind Chill Definition


Weather Definition


TIME
00:00 -5.4 -6.3 94 6 4   102.21   -7 LegendNANA
01:00 -4.2 -6.7 83 31 19   102.25   -10 LegendNANA
02:00 -5.2 -8.2 79 30 22   102.28   -12 LegendNANA
03:00 -6.9 -9.1 84 29 17   102.31   -13 LegendNANA
04:00 -7.8 -9.1 90 30 13   102.34   -14 LegendNANA
05:00 -7.4 -8.2 94 28 11   102.37   -12 LegendNANA
06:00 -6.3 -8.2 87 30 12   102.39   -11 LegendNANA
07:00 -6.2 -7.8 89 30 7   102.42   -10 LegendNANA
08:00 -5.7 -6.9 91 27 13   102.43   -11 LegendNANA
09:00 -6.5 -7.8 90 29 21   102.43   -14 LegendNANA
10:00 -7.6 -9.5 86 29 23   102.45   -15 LegendNANA
11:00 -8.0 -9.9 86 28 22   102.45   -16 LegendNANA
12:00 -7.1 -9.3 84 30 24   102.44   -15 LegendNANA
13:00 -7.1 -9.4 84 29 20   102.44   -14 LegendNANA
14:00 -7.4 -9.9 82 29 21   102.45   -15 LegendNANA
15:00 -7.4 -9.5 85 28 21   102.44   -15 LegendNANA
16:00 -7.7 -9.6 87 27 18   102.43   -15 LegendNANA
17:00 -7.8 -8.9 92 27 14   102.41   -14 LegendNANA
18:00 -9.1 -10.1 92 22 15   102.39   -16 LegendNANA
19:00 -9.5 -10.5 92 26 8   102.34   -14 LegendNANA
20:00 -8.7 -9.7 92 21 11   102.29   -14 LegendNANA
21:00 -7.7 -8.6 93 22 11   102.24   -13 LegendNANA
22:00 -7.4 -8.3 93 24 14   102.19   -13 LegendNANA
23:00 -8.4 -9.5 92 25 17   102.16   -15 LegendNANA

Notes on Data Quality.

Legend

  • E = Estimated
  • M = Missing
  • NA = Not Available
  • ‡ = Partner data that is not subject to review by the National Climate Archives
Date modified: